GW4210 Weather Reports


time (UTC)temp
C
wind
direction
speed
KPH
gust
KPH
rain 1hr
cm
rain 24hr
cm
rain mn
cm
humidity
%
barometer
mb
20260505221539 25 0 0.0 3.2 0.00 0.00 0.00 86 1011.1
20260505221022 25 43 1.6 3.2 0.00 0.00 0.00 86 1011.1
20260505220524 25 53 0.0 3.2 0.00 0.00 0.00 87 1011.0
20260505220049 25 0 0.0 3.2 0.00 0.00 0.00 88 1011.0
20260505215524 25 0 0.0 1.6 0.00 0.00 0.00 88 1011.1
20260505215024 25 0 0.0 1.6 0.00 0.00 0.00 88 1011.0
20260505214539 25 0 0.0 0.0 0.00 0.00 0.00 89 1010.9
20260505214021 25 0 0.0 3.2 0.00 0.00 0.00 89 1010.9
20260505213524 25 0 0.0 3.2 0.00 0.00 0.00 88 1011.0
20260505213039 25 275 0.0 1.6 0.00 0.00 0.00 88 1011.0
20260505212521 25 316 0.0 3.2 0.00 0.00 0.00 88 1010.9
20260505212024 25 352 1.6 3.2 0.00 0.00 0.00 87 1010.9
20260505211545 25 0 0.0 3.2 0.00 0.00 0.00 87 1010.8
20260505211024 25 352 1.6 3.2 0.00 0.00 0.00 87 1010.6
20260505210524 25 0 0.0 3.2 0.00 0.00 0.00 88 1010.6
20260505210035 25 352 0.0 3.2 0.00 0.00 0.00 88 1010.6
20260505205525 25 0 0.0 3.2 0.00 0.00 0.00 88 1010.6
20260505205025 25 19 0.0 3.2 0.00 0.00 0.00 88 1010.6
20260505204538 25 0 0.0 3.2 0.00 0.00 0.00 88 1010.6
20260505204024 25 19 0.0 3.2 0.00 0.00 0.00 87 1010.6
20260505203523 25 19 0.0 3.2 0.00 0.00 0.00 87 1010.5
20260505203040 25 0 0.0 3.2 0.00 0.00 0.00 87 1010.6
20260505202524 25 0 0.0 3.2 0.00 0.00 0.00 86 1010.5
20260505202023 25 0 0.0 3.2 0.00 0.00 0.00 86 1010.4
20260505201542 25 352 0.0 3.2 0.00 0.00 0.00 85 1010.5
20260505201020 25 19 0.0 3.2 0.00 0.00 0.00 86 1010.4
20260505200522 25 11 1.6 3.2 0.00 0.00 0.00 86 1010.3
20260505200040 25 360 1.6 3.2 0.00 0.00 0.00 86 1010.2
20260505195523 25 329 1.6 3.2 0.00 0.00 0.00 86 1010.1
20260505195023 25 330 1.6 3.2 0.00 0.00 0.00 86 1010.1
20260505194543 25 0 0.0 3.2 0.00 0.00 0.00 85 1010.1
20260505194022 25 352 1.6 3.2 0.00 0.00 0.00 86 1010.1
20260505193524 25 340 1.6 3.2 0.00 0.00 0.00 86 1010.1
20260505193044 25 350 1.6 3.2 0.00 0.00 0.00 86 1010.2
20260505192523 25 350 1.6 3.2 0.00 0.00 0.00 86 1010.2
20260505192023 25 350 0.0 3.2 0.00 0.00 0.00 85 1010.2
20260505191549 25 350 1.6 3.2 0.00 0.00 0.00 86 1010.1
20260505191027 25 5 0.0 3.2 0.00 0.00 0.00 86 1010.2
20260505190521 25 5 0.0 3.2 0.00 0.00 0.00 85 1010.1
20260505190041 25 5 0.0 3.2 0.00 0.00 0.00 83 1010.2
20260505185521 25 5 0.0 3.2 0.00 0.00 0.00 84 1010.1
20260505185020 25 5 0.0 3.2 0.00 0.00 0.00 84 1010.2
20260505184538 25 5 0.0 3.2 0.00 0.00 0.00 84 1010.3
20260505184024 25 339 1.6 4.8 0.00 0.00 0.00 86 1010.3
20260505183523 25 338 3.2 4.8 0.00 0.00 0.00 85 1010.3
20260505183036 25 360 1.6 4.8 0.00 0.00 0.00 86 1010.3
20260505182523 25 339 4.8 6.4 0.00 0.00 0.00 85 1010.4
20260505182023 25 348 3.2 8.0 0.00 0.00 0.00 85 1010.4
20260505181535 25 331 4.8 8.0 0.00 0.00 0.00 85 1010.4
20260505181024 25 338 3.2 4.8 0.00 0.00 0.00 86 1010.5
20260505180526 25 329 0.0 3.2 0.00 0.00 0.00 87 1010.5
20260505180047 25 329 0.0 3.2 0.00 0.00 0.00 86 1010.4
20260505175521 25 0 0.0 3.2 0.00 0.00 0.00 87 1010.4
20260505175023 25 0 0.0 3.2 0.00 0.00 0.00 87 1010.6
20260505174548 25 329 1.6 3.2 0.00 0.00 0.00 87 1010.6
20260505174023 25 360 0.0 1.6 0.00 0.00 0.00 86 1010.6
20260505173522 25 0 0.0 0.0 0.00 0.00 0.00 87 1010.4
20260505173038 25 0 0.0 0.0 0.00 0.00 0.00 87 1010.5
20260505172519 25 0 0.0 0.0 0.00 0.00 0.00 88 1010.5
20260505172024 25 0 0.0 0.0 0.00 0.00 0.00 88 1010.5
20260505171539 25 0 0.0 0.0 0.00 0.00 0.00 89 1010.5
20260505171023 25 0 0.0 3.2 0.00 0.00 0.00 88 1010.6
20260505170522 25 0 0.0 3.2 0.00 0.00 0.00 88 1010.6
20260505170048 25 0 0.0 3.2 0.00 0.00 0.00 88 1010.7
20260505165526 25 0 0.0 3.2 0.00 0.00 0.00 87 1010.8
20260505165023 25 0 0.0 3.2 0.00 0.00 0.00 88 1010.8
20260505164540 25 0 0.0 1.6 0.00 0.00 0.00 88 1010.9
20260505164022 25 318 1.6 1.6 0.00 0.00 0.00 88 1010.8
20260505163521 25 318 1.6 1.6 0.00 0.00 0.00 87 1010.8
20260505163043 25 0 0.0 0.0 0.00 0.00 0.00 87 1010.8
20260505162523 25 0 0.0 0.0 0.00 0.00 0.00 86 1010.8
20260505162022 25 0 0.0 0.0 0.00 0.00 0.00 86 1010.8
20260505161543 26 0 0.0 3.2 0.00 0.00 0.00 86 1010.8
20260505161023 26 0 0.0 3.2 0.00 0.00 0.00 85 1010.8
20260505160522 26 0 0.0 3.2 0.00 0.00 0.00 85 1010.9
20260505153051 26 0 0.0 4.8 0.00 0.00 0.00 79 1011.1
20260505152520 26 50 1.6 4.8 0.00 0.00 0.00 79 1011.2
20260505152022 26 0 0.0 4.8 0.00 0.00 0.00 79 1011.1
20260505151542 26 12 0.0 4.8 0.00 0.00 0.00 80 1011.1
20260505151023 26 21 1.6 4.8 0.00 0.00 0.00 79 1011.3
20260505150522 26 56 3.2 6.4 0.00 0.00 0.00 79 1011.2
20260505140522 27 338 3.2 4.8 0.00 0.00 0.00 79 1011.4
20260505125023 27 0 0.0 3.2 0.00 0.00 0.00 75 1011.0
20260505124544 27 91 1.6 4.8 0.00 0.00 0.00 74 1011.0
20260505124021 27 50 1.6 4.8 0.00 0.00 0.00 75 1010.9
20260505123519 27 0 0.0 1.6 0.00 0.00 0.00 75 1010.8
20260505123058 27 0 0.0 3.2 0.00 0.00 0.00 75 1010.8
20260505122522 27 28 1.6 3.2 0.00 0.00 0.00 74 1010.9
20260505122023 27 57 1.6 3.2 0.00 0.00 0.00 74 1010.8
20260505121538 27 0 0.0 6.4 0.00 0.00 0.00 74 1010.8
20260505121024 27 108 3.2 6.4 0.00 0.00 0.00 75 1010.6
20260505120526 27 95 4.8 9.7 0.00 0.00 0.00 74 1010.5
20260505120037 28 95 3.2 9.7 0.00 0.00 0.00 74 1010.4
20260505115520 28 103 3.2 9.7 0.00 0.00 0.00 73 1010.3
20260505115021 28 94 4.8 6.4 0.00 0.00 0.00 74 1010.3
20260505114551 28 126 4.8 6.4 0.00 0.00 0.00 73 1010.3
20260505114023 28 91 3.2 6.4 0.00 0.00 0.00 73 1010.2
20260505113524 28 83 1.6 11.3 0.00 0.00 0.00 72 1010.2
20260505113044 28 93 1.6 11.3 0.00 0.00 0.00 72 1010.2
20260505112520 28 58 3.2 9.7 0.00 0.00 0.00 72 1010.2
20260505112021 28 101 3.2 9.7 0.00 0.00 0.00 72 1010.4
20260505111554 28 47 3.2 9.7 0.00 0.00 0.00 72 1010.4
20260505111026 28 81 3.2 14.5 0.00 0.00 0.00 72 1010.4
20260505110523 28 94 4.8 14.5 0.00 0.00 0.00 72 1010.2
20260505102024 29 32 3.2 12.9 0.00 0.00 0.00 67 1010.6
20260505101538 29 70 3.2 9.7 0.00 0.00 0.00 67 1010.6
20260505101020 30 111 3.2 11.3 0.00 0.00 0.00 68 1010.5
20260505100520 30 71 3.2 11.3 0.00 0.00 0.00 67 1010.4
20260505100042 30 41 4.8 12.9 0.00 0.00 0.00 67 1010.3
20260505095525 30 96 3.2 17.7 0.00 0.00 0.00 67 1010.1
20260505095022 30 69 6.4 17.7 0.00 0.00 0.00 67 1010.1
20260505094542 30 96 6.4 16.1 0.00 0.00 0.00 67 1010.0
20260505094024 30 51 4.8 16.1 0.00 0.00 0.00 67 1009.9
20260505093523 30 77 4.8 16.1 0.00 0.00 0.00 68 1009.7
20260505093039 30 44 4.8 11.3 0.00 0.00 0.00 68 1009.7
20260505092521 30 94 3.2 12.9 0.00 0.00 0.00 69 1009.6
20260505092021 30 40 3.2 12.9 0.00 0.00 0.00 68 1009.6
20260505091539 31 86 3.2 14.5 0.00 0.00 0.00 69 1009.6
20260505091023 31 67 4.8 14.5 0.00 0.00 0.00 69 1009.4
20260505090524 31 103 4.8 14.5 0.00 0.00 0.00 68 1009.4
20260505090039 31 44 3.2 14.5 0.00 0.00 0.00 68 1009.4
20260505085520 31 53 4.8 14.5 0.00 0.00 0.00 68 1009.5
20260505085023 31 46 4.8 14.5 0.00 0.00 0.00 68 1009.5
20260505084541 31 114 3.2 14.5 0.00 0.00 0.00 67 1009.5
20260505084022 31 82 4.8 14.5 0.00 0.00 0.00 69 1009.5
20260505083522 31 59 3.2 17.7 0.00 0.00 0.00 68 1009.5
20260505083047 31 18 6.4 17.7 0.00 0.00 0.00 68 1009.6
20260505082520 31 130 4.8 17.7 0.00 0.00 0.00 68 1009.5
20260505082021 31 91 6.4 19.3 0.00 0.00 0.00 69 1009.5
20260505081547 31 74 6.4 19.3 0.00 0.00 0.00 67 1009.6
20260505081026 31 101 8.0 19.3 0.00 0.00 0.00 66 1009.6
20260505080523 31 46 8.0 20.9 0.00 0.00 0.00 66 1009.5
20260505080041 31 15 8.0 20.9 0.00 0.00 0.00 65 1009.5
20260505075521 32 103 9.7 19.3 0.00 0.00 0.00 65 1009.5
20260505075024 31 84 4.8 19.3 0.00 0.00 0.00 65 1009.4
20260505074543 31 108 4.8 16.1 0.00 0.00 0.00 66 1009.4
20260505074022 31 46 6.4 16.1 0.00 0.00 0.00 67 1009.5
20260505073522 31 92 6.4 17.7 0.00 0.00 0.00 67 1009.5
20260505073036 31 46 8.0 17.7 0.00 0.00 0.00 68 1009.4
20260505072522 31 75 9.7 20.9 0.00 0.00 0.00 67 1009.6
20260505072022 31 103 9.7 20.9 0.00 0.00 0.00 67 1009.6
20260505071541 31 121 16.1 22.5 0.00 0.00 0.00 66 1009.6
20260505071022 31 107 16.1 22.5 0.00 0.00 0.00 65 1009.6
20260505070522 31 113 14.5 22.5 0.00 0.00 0.00 66 1009.6
20260505070047 32 107 9.7 19.3 0.00 0.00 0.00 65 1009.6
20260505065522 32 88 6.4 19.3 0.00 0.00 0.00 64 1009.5
20260505065022 32 79 11.3 19.3 0.00 0.00 0.00 64 1009.5
20260505064553 32 104 11.3 19.3 0.00 0.00 0.00 63 1009.5
20260505064023 31 65 11.3 19.3 0.00 0.00 0.00 65 1009.5
20260505063522 32 116 11.3 20.9 0.00 0.00 0.00 65 1009.6
20260505063043 32 83 14.5 20.9 0.00 0.00 0.00 64 1009.6
20260505062521 32 117 12.9 19.3 0.00 0.00 0.00 65 1009.6
20260505062023 32 100 6.4 20.9 0.00 0.00 0.00 66 1009.5
20260505061540 32 89 12.9 20.9 0.00 0.00 0.00 65 1009.5
20260505061020 32 75 6.4 19.3 0.00 0.00 0.00 64 1009.5
20260505060523 32 68 12.9 19.3 0.00 0.00 0.00 64 1009.6
20260505060041 32 102 8.0 17.7 0.00 0.00 0.00 64 1009.6
20260505055520 32 136 12.9 20.9 0.00 0.00 0.00 65 1009.6
20260505055020 32 153 12.9 20.9 0.00 0.00 0.00 65 1009.6
20260505054541 31 111 14.5 20.9 0.00 0.00 0.00 63 1009.6
20260505054023 32 128 14.5 20.9 0.00 0.00 0.00 63 1009.7
20260505053520 32 148 12.9 17.7 0.00 0.00 0.00 63 1009.8
20260505053036 32 148 6.4 16.1 0.00 0.00 0.00 63 1009.8
20260505052520 32 111 8.0 16.1 0.00 0.00 0.00 63 1009.8
20260505052020 32 99 11.3 16.1 0.00 0.00 0.00 62 1009.9
20260505051539 32 55 11.3 16.1 0.00 0.00 0.00 60 1010.0
20260505051022 32 141 8.0 14.5 0.00 0.00 0.00 63 1010.0
20260505050523 32 72 3.2 16.1 0.00 0.00 0.00 60 1009.9
20260505041553 32 122 11.3 19.3 0.00 0.00 0.00 64 1010.5
20260505041020 31 136 11.3 27.4 0.00 0.00 0.00 65 1010.6
20260505040523 31 141 9.7 27.4 0.00 0.00 0.00 67 1010.7
20260505040039 32 148 14.5 22.5 0.00 0.00 0.00 65 1010.8
20260505035522 32 104 12.9 20.9 0.00 0.00 0.00 63 1010.8
20260505035021 31 119 12.9 19.3 0.00 0.00 0.00 67 1010.8
20260505034541 31 162 9.7 17.7 0.00 0.00 0.00 68 1010.9
20260505034026 31 141 14.5 19.3 0.00 0.00 0.00 67 1011.0
20260505033526 31 140 11.3 19.3 0.00 0.00 0.00 67 1011.0
20260505033040 31 109 11.3 16.1 0.00 0.00 0.00 69 1011.0
20260505032525 31 133 9.7 16.1 0.00 0.00 0.00 65 1011.0
20260505032026 31 177 6.4 12.9 0.00 0.00 0.00 67 1011.0
20260505031540 32 137 4.8 12.9 0.00 0.00 0.00 62 1011.0
20260505031023 31 117 3.2 12.9 0.00 0.00 0.00 62 1011.1
20260505030523 32 124 8.0 12.9 0.00 0.00 0.00 63 1011.1
20260505030038 32 88 4.8 16.1 0.00 0.00 0.00 60 1011.2
20260505025520 32 98 8.0 16.1 0.00 0.00 0.00 64 1011.1
20260505025021 32 130 6.4 19.3 0.00 0.00 0.00 64 1011.2
20260505024544 31 150 11.3 24.1 0.00 0.00 0.00 60 1011.2
20260505024020 32 108 8.0 24.1 0.00 0.00 0.00 63 1011.2
20260505023522 31 134 14.5 24.1 0.00 0.00 0.00 62 1011.3
20260505023043 31 153 3.2 16.1 0.00 0.00 0.00 61 1011.3
20260505022523 31 96 8.0 19.3 0.00 0.00 0.00 60 1011.5
20260505022020 31 105 8.0 19.3 0.00 0.00 0.00 60 1011.5
20260505021544 31 138 11.3 22.5 0.00 0.00 0.00 60 1011.5
20260505021023 31 119 14.5 22.5 0.00 0.00 0.00 60 1011.4
20260505020521 31 136 11.3 16.1 0.00 0.00 0.00 61 1011.5
20260505020038 31 132 9.7 16.1 0.00 0.00 0.00 62 1011.5
20260505015520 31 131 6.4 16.1 0.00 0.00 0.00 64 1011.5
20260505015024 31 126 11.3 16.1 0.00 0.00 0.00 62 1011.6
20260505014542 31 160 11.3 17.7 0.00 0.00 0.00 63 1011.6
20260505014020 31 134 11.3 17.7 0.00 0.00 0.00 63 1011.7
20260505013521 31 130 11.3 17.7 0.00 0.00 0.00 63 1011.6
20260505013036 30 167 6.4 16.1 0.00 0.00 0.00 63 1011.8
20260505012520 30 159 8.0 17.7 0.00 0.00 0.00 66 1011.9
20260505012020 30 138 9.7 17.7 0.00 0.00 0.00 66 1011.8
20260505011536 30 140 9.7 16.1 0.00 0.00 0.00 67 1011.8
20260505011020 30 193 6.4 16.1 0.00 0.00 0.00 68 1011.7
20260505010520 30 154 8.0 12.9 0.00 0.00 0.00 67 1011.7
20260505010043 30 288 3.2 8.0 0.00 0.00 0.00 66 1011.6
20260505005523 30 231 3.2 8.0 0.00 0.00 0.00 67 1011.6
20260505005020 30 285 1.6 3.2 0.00 0.00 0.00 67 1011.7
20260505004538 29 207 1.6 3.2 0.00 0.00 0.00 69 1011.7
20260505004020 30 155 1.6 4.8 0.00 0.00 0.00 65 1011.8
20260505003527 29 0 0.0 4.8 0.00 0.00 0.00 68 1011.8
20260505003039 29 228 1.6 4.8 0.00 0.00 0.00 70 1011.8
20260505002520 29 248 3.2 4.8 0.00 0.00 0.00 68 1011.8
20260505002021 29 215 1.6 3.2 0.00 0.00 0.00 69 1011.7
20260505001548 28 256 1.6 3.2 0.00 0.00 0.00 72 1011.7
20260505001020 28 252 1.6 4.8 0.00 0.00 0.00 74 1011.6
20260505000520 28 196 3.2 4.8 0.00 0.00 0.00 72 1011.8
20260505000041 28 233 3.2 4.8 0.00 0.00 0.00 71 1011.8
20260504235520 28 221 1.6 3.2 0.00 0.00 0.00 71 1011.9
20260504235020 28 94 0.0 4.8 0.00 0.00 0.00 73 1011.8
20260504234533 28 94 1.6 4.8 0.00 0.00 0.00 73 1011.9
20260504234020 28 88 1.6 9.7 0.00 0.00 0.00 73 1011.7
20260504233521 28 113 4.8 9.7 0.00 0.00 0.00 74 1011.7
20260504233038 27 107 0.0 3.2 0.00 0.00 0.00 75 1011.8
20260504232524 27 0 0.0 0.0 0.00 0.00 0.00 76 1011.7
20260504232020 27 0 0.0 0.0 0.00 0.00 0.00 76 1011.8
20260504231555 27 0 0.0 0.0 0.00 0.00 0.00 77 1011.7
20260504231024 27 0 0.0 0.0 0.00 0.00 0.00 78 1011.7
20260504230520 27 0 0.0 0.0 0.00 0.00 0.00 79 1011.7
20260504230038 26 0 0.0 0.0 0.00 0.00 0.00 80 1011.6
20260504225524 26 0 0.0 0.0 0.00 0.00 0.00 82 1011.6
20260504225021 26 0 0.0 0.0 0.00 0.00 0.00 82 1011.6
20260504224540 25 0 0.0 3.2 0.00 0.00 0.00 83 1011.6
20260504224023 25 0 0.0 3.2 0.00 0.00 0.00 83 1011.4
20260504223523 25 0 0.0 3.2 0.00 0.00 0.00 84 1011.5
20260504223041 25 336 0.0 3.2 0.00 0.00 0.00 85 1011.4
20260504222522 24 336 0.0 3.2 0.00 0.00 0.00 87 1011.3
20260504222021 24 336 1.6 1.6 0.00 0.00 0.00 86 1011.2